STARLINK-5056 (53910 NORAD) Tracking and Keplerian Element Data

This shows tracking and keplerian element data for the satellite.

Feedback or suggestion? Click here.




ElementValue
Catalog53910
NameSTARLINK-5056
Epoch Orbit130
Epoch Day324.91667824
Epoch Year2022
RAAN331.1449
Inclination53.2136
Eccentricity0.0004142
Argument of Perigee1.7493
Mean Anonmoly11.8402
Mean Motion15.73179701
Decay Rate-4.736E-05
L11 53910U 22119AA 22324.91667824 -.00004736 00000+0 -29318-4 0 9997
L22 53910 53.2136 331.1449 0004142 1.7493 11.8402 15.73179701 1301



Live tracking and technical data element details for STARLINK-5056 (NORAD 53910). STARLINK-5056 can be tracked NOW for your location showing map with azimuth and elevation plus other details from your city location.







IsCatalogInMostPopularTable: catalog: 53910, numindb: 1
Update: records affected: 1



GetName: 53910 STARLINK-5056

Hit Count: updated at: Fri, 09 Dec 2022 20:27:38 GMT